Other Public Products
Issued by NWS Charleston, SC

Current Version | Previous Version | Graphics & Text | Print | Product List | Glossary On
Versions: 1 2 3 4 5 6 7 8 9 10 11 12 13 14 15 16 17 18 19 20 21 22 23 24 25 26 27 28 29 30 31 32 33 34 35 36 37 38 39 40 41 42 43 44 45 46 47 48 49 50
540
FPUS82 KCHS 251312
OPUCHS

TEST...KCHS/KSAV Gateway Observations...TEST
National Weather Service Charleston SC
900 AM EDT THU MAY 25 2017

NOTE: "fair" indicates few or no clouds below 12,000 feet with no
significant weather and/or obstructions to visibility.

SCZ050-WAZ558-NCZ071-TXZ119-213-PAZ071-DCZ001-FLZ074-172-MI076-
NYZ176-178-MAZ016-IL014-TNZ027-NJZ106-GAZ044-MD014-251400-

...Gateway Observations for Charleston International...

CITY           SKY/WX    TMP DP  RH WIND       PRES   REMARKS
Chas Airport   CLOUDY    67  58  72 SW12      29.70R
Seattle        PTCLDY    48  45  89 SE6       29.92S
Charlotte      CLOUDY    59  56  89 SW10      29.59R
Dallas DFW     SUNNY     66  54  65 SE12      29.70S
Dallas Love    SUNNY     66  52  60 SE12      29.73R
Philladelphia  LGT RAIN  56  54  93 E15       29.58F FOG
Wash National  LGT RAIN  61  60  97 N9        29.48R FOG
Baltimore      LGT RAIN  58  58 100 E13       29.48F VSB 1
Miami          CLOUDY    84  76  76 S14G22    29.87R HX  93
Detroit        CLOUDY    59  58  96 NE7       29.47R FOG
Newark         RAIN      57  55  93 E12       29.66F FOG
Laguardia      LGT RAIN  58  55  90 NE13      29.66S FOG
J F K          LGT RAIN  57  56  96 E13       29.68F FOG
Boston Logan   LGT RAIN  54  52  93 NE15      29.88R
Ft. Lauderdale PTSUNNY   83  77  82 SW14G23   29.86R HX  92
Chicago O`Hare CLOUDY    56  51  84 NW13      29.59R
Chicago Midway CLOUDY    56  51  84 NW12      29.59R
Houston Bush   SUNNY     71  63  75 CALM      29.81R
Houston Hobby  SUNNY     71  63  75 S7        29.81R
Nashville      CLOUDY    56  52  86 W7        29.69R
Atlanta        PTSUNNY   59  53  80 W16G22    29.74R

$$

GAZ044-118-TXZ119-213-NCZ071-DCZ001-MDZ014-506-PAZ021-071-NJZ106-
NYZ176-178-MAZ106-OHZ011-021-055-MIZ076-KYZ091-ILZ014-INZ047-
MNZ060-ONZ431-251400-

...Gateway Observations for Savannah International...

CITY           SKY/WX    TMP DP  RH WIND       PRES   REMARKS
Savannah Arpt  CLOUDY    68  58  70 SW12      29.74S
Atlanta        PTSUNNY   59  53  80 W16G22    29.74R
Charlotte      CLOUDY    59  56  89 SW10      29.59R
Dallas DFW     SUNNY     66  54  65 SE12      29.70S
Houston Bush   SUNNY     71  63  75 CALM      29.81R
Wash National  LGT RAIN  61  60  97 N9        29.48R FOG
Wash Dulles    CLOUDY    59  56  89 N7        29.50R FOG
Baltimore      LGT RAIN  58  58 100 E13       29.48F VSB 1
Philadelphia   LGT RAIN  56  54  93 E15       29.58F FOG
Newark         RAIN      57  55  93 E12       29.66F FOG
Laguardia      LGT RAIN  58  55  90 NE13      29.66S FOG
J F K          LGT RAIN  57  56  96 E13       29.68F FOG
Boston         LGT RAIN  54  52  93 NE15      29.88R
Pittsburg      LGT RAIN  56  56 100 SE7       29.47S
Akron          LGT RAIN  58  55  90 SE8       29.46R FOG
Cleveland      LGT RAIN  62  58  86 SE7       29.47S
Cincinnati     RAIN      57  56  96 W7        29.41R FOG
Columbus       CLOUDY    58  56  94 S14       29.43R
Detroit        CLOUDY    59  58  96 NE7       29.47R FOG
Chicago O`Hare CLOUDY    56  51  84 NW13      29.59R
Minneapolis    MOSUNNY   55  49  80 SE8       29.72S
Indianapolis   DRIZZLE   55  54  96 NW16G25   29.48R FOG
Toronto Canada LGT RAIN  54  52  94 E17G25    29.58S FOG

$$




USA.gov is the U.S. government's official web portal to all federal, state and local government web resources and services.